Location: Cactus School
(34.5700°N, 118.0931°W)
Time: 23:25:33
(UTC-07:00)

Transit 4A - Pass Details

Date: 14 April 2024
Orbit: 871 x 971 km, 66.8° (Epoch: 17 May)

Event Time Altitude Azimuth Distance (km) Brightness Sun altitude
Rises 13:58:37 0° 192° (SSW) 3,567 11.3 61.0°
Reaches altitude 10° 14:01:12 10° 188° (S) 2,612 10.8 60.7°
Maximum altitude 14:07:06 56° 112° (ESE) 1,070 9.0 59.9°
Drops below altitude 10° 14:12:52 10° 36° (NE) 2,561 10.0 59.2°
Sets 14:15:23 0° 32° (NNE) 3,492 10.6 58.8°
